Wind_Speed
27 24 26 25 24 23 22 20 20 17 15 14 9 8 7 9 9 10 12 17 18 17 16 16 13 13 9 9 8 8 9 11 11 13 13 12 12 12 12 13 14 14 13
25 26 27 27 25 24 23 20 20 18 16 16 15 12 10 10 11 10 11 15 19 20 19 20 18 19 17 15 13 11 12 13 12 14 15 14 12 11 13 13 14 15 13
24 25 26 26 26 25 23 21 21 19 18 18 20 18 13 13 15 16 14 14 16 20 22 23 22 22 21 20 20 17 16 17 16 14 16 16 16 15 14 13 14 13 14
24 23 22 23 23 23 22 22 21 20 20 21 21 19 17 14 15 18 19 17 17 19 21 23 25 26 24 23 25 24 23 22 21 20 18 19 17 16 18 15 15 14 12
28 26 23 21 21 21 22 23 22 22 22 22 22 23 20 18 15 15 17 18 18 20 22 23 24 25 25 25 27 28 28 28 29 26 24 23 24 21 20 18 18 18 14
30 28 27 26 25 24 23 22 23 24 23 23 23 21 21 18 16 15 16 17 17 19 21 25 26 26 26 28 29 31 32 34 33 33 32 30 28 27 27 24 23 21 20
24 25 26 29 30 27 27 28 28 27 27 26 24 23 22 20 18 17 19 21 21 21 22 23 26 30 30 29 30 34 35 37 38 38 38 36 34 32 32 33 26 25 23
17 20 24 24 23 22 23 27 33 34 32 30 29 28 26 23 25 25 25 26 27 28 28 27 28 29 32 34 34 36 37 38 39 41 42 40 38 34 38 37 32 30 28
24 23 23 23 22 21 20 19 22 28 35 36 33 32 30 28 28 30 34 36 34 33 34 35 35 35 34 35 38 40 40 42 40 40 42 42 42 42 42 42 39 35 31
30 29 28 27 26 25 24 22 20 19 25 33 34 33 33 32 32 33 35 38 40 41 42 40 39 39 41 43 43 44 44 43 42 40 41 42 42 44 46 45 41 39 36
26 26 28 31 31 31 29 28 27 25 24 29 33 34 32 34 36 37 38 41 42 43 42 42 42 43 45 46 48 49 45 46 47 47 46 46 47 48 47 49 46 43 39
33 36 33 31 33 33 33 32 33 32 30 29 32 34 37 37 38 39 40 40 41 44 43 44 45 46 47 49 51 51 52 52 54 53 54 55 54 54 53 47 46 45 42
38 39 36 34 31 33 34 34 34 34 33 31 33 34 35 39 41 41 41 40 43 45 45 47 49 48 48 48 49 50 52 55 56 61 61 60 59 58 53 48 48 48 50
46 44 40 35 32 32 34 35 34 33 33 34 33 37 37 39 41 41 41 41 42 43 43 40 34 29 30 34 35 36 40 43 51 57 60 63 64 61 61 53 52 52 54
27 32 35 34 32 30 30 32 31 31 32 31 30 32 34 35 38 37 37 36 34 29 30 30 31 35 37 39 43 47 49 51 53 57 60 65 69 69 66 61 57 54 56
26 24 27 31 34 32 30 33 30 29 31 31 31 32 32 31 31 32 29 26 26 26 28 30 35 39 44 48 51 55 57 57 58 57 58 65 62 75 72 65 63 58 60
23 25 24 29 33 34 33 33 33 33 31 29 29 28 28 29 26 24 24 26 26 28 31 33 38 43 47 51 54 58 61 63 63 61 65 65 68 67 81 71 71 72 62
26 28 25 25 28 30 30 30 30 29 29 28 26 24 24 23 23 24 24 26 28 31 33 36 38 42 46 50 54 58 62 64 60 63 60 66 63 70 74 80 83 65 63
21 22 23 22 23 24 26 27 30 31 28 27 26 26 26 26 25 26 28 30 32 34 36 39 43 44 45 47 49 54 54 55 48 44 51 51 68 76 76 80 86 67 35
21 22 24 24 26 28 30 31 32 34 33 31 29 27 27 25 25 27 29 30 32 33 35 38 38 39 42 40 38 38 38 39 36 41 37 33 42 46 40 48 53 32 23
26 26 24 25 26 25 26 28 29 29 28 27 26 26 26 27 27 28 28 28 29 31 33 35 36 37 35 31 28 26 27 24 22 22 22 7 14 10 12 11 8 15 17
28 29 28 27 27 27 26 26 25 25 24 23 23 23 24 26 27 27 27 27 26 28 30 28 26 28 28 24 21 21 21 23 25 27 21 14 16 28 4 14 17 18 16
27 26 26 26 23 20 18 18 18 19 19 20 23 24 25 25 25 26 25 24 24 23 21 19 16 20 21 21 19 18 16 16 16 16 13 7 2 6 6 13 19 8 9
28 26 26 25 24 21 18 18 19 20 20 21 22 23 25 25 24 23 25 25 23 22 22 23 23 24 25 21 19 17 13 13 9 8 6 4 1 8 12 13 13 12 14
20 23 20 21 20 21 20 20 21 22 23 23 25 27 28 29 30 31 30 31 32 32 32 30 28 27 27 29 27 23 13 12 7 6 4 5 8 14 16 12 12 13 13
16 18 20 19 20 19 19 19 19 20 20 20 21 22 23 22 22 24 25 26 29 32 34 33 34 33 32 27 27 25 22 19 14 12 15 16 17 17 15 16 16 16 16
Wind_Direction
209 212 215 218 218 221 228 227 224 222 233 248 245 233 238 257 253 252 238 231 232 233 238 248 255 262 278 297 313 328 331 332 335 333 340 346 351 350 348 346 340 335 330
199 206 210 215 219 220 222 226 221 224 225 238 249 249 248 258 275 273 262 250 246 244 247 248 251 263 273 281 290 300 309 316 317 316 330 330 328 329 332 332 332 327 333
194 200 206 209 213 216 216 216 219 219 224 231 247 263 262 257 263 272 269 260 255 251 250 255 253 252 258 271 282 284 290 294 302 305 306 320 329 324 315 316 316 320 324
194 196 200 206 211 215 217 217 217 219 226 234 244 253 260 263 261 265 268 265 262 261 254 249 255 261 261 262 271 278 281 284 290 294 297 300 308 312 311 311 305 309 314
207 205 207 209 212 214 214 215 218 215 219 228 237 246 254 256 250 250 261 268 265 263 265 263 255 255 261 262 261 268 273 279 283 287 291 292 294 298 300 304 304 299 302
227 219 220 220 222 222 222 222 220 223 226 225 233 240 246 251 255 254 255 263 269 270 266 267 269 265 258 258 260 261 264 270 275 279 283 285 290 291 295 297 297 292 297
221 224 224 228 230 231 232 234 234 232 232 237 240 241 249 254 258 259 261 264 269 272 274 275 274 274 272 266 264 264 263 263 268 274 277 282 285 290 288 288 290 295 295
218 219 215 215 220 227 239 244 244 241 240 240 244 249 253 256 262 266 269 271 274 275 276 274 274 275 277 277 274 270 269 268 267 271 275 278 280 279 280 284 284 288 291
244 241 232 231 235 237 247 256 255 249 245 242 242 246 254 259 264 267 269 272 275 279 280 280 280 277 275 275 277 277 275 275 275 276 277 276 276 274 274 276 280 282 282
245 240 241 248 251 255 264 268 270 263 251 245 245 246 248 255 259 266 271 272 274 277 278 280 281 280 280 279 277 278 279 280 284 283 281 280 277 274 275 275 272 274 277
233 235 238 243 251 258 264 268 270 269 261 249 246 246 250 252 257 262 268 273 277 278 278 279 278 278 277 277 277 276 276 280 279 280 277 275 274 274 268 267 271 269 270
228 233 235 240 244 249 255 258 263 264 264 257 251 250 250 253 258 263 267 270 272 276 281 283 284 283 281 280 278 279 279 278 277 276 277 278 276 273 272 270 270 264 263
244 249 252 251 249 250 254 257 258 261 261 261 252 249 252 255 258 262 265 268 272 277 278 280 280 282 281 278 278 279 280 281 279 279 281 279 278 279 274 266 261 257 253
243 248 251 248 250 255 258 256 257 258 256 255 254 252 250 253 257 261 267 268 269 272 280 284 287 295 300 302 300 297 292 289 287 285 284 283 278 275 273 267 260 254 251
241 246 248 247 247 255 257 253 255 255 252 252 253 253 251 253 259 265 270 274 275 272 275 286 296 300 300 301 299 296 292 288 283 282 278 277 276 277 279 276 266 255 249
244 249 253 248 247 249 255 254 254 255 256 254 253 257 261 263 265 268 270 269 271 277 285 291 296 300 301 300 296 291 288 285 281 278 276 275 269 272 272 268 260 263 249
250 248 254 249 245 249 251 255 257 257 257 257 258 258 261 264 261 261 265 273 281 290 295 298 300 300 299 295 292 291 289 285 283 282 274 271 270 269 272 264 266 245 256
242 245 247 255 252 249 255 259 260 261 260 260 260 259 257 257 260 264 268 278 284 289 291 293 292 290 291 293 294 291 290 289 288 290 287 278 275 268 262 258 265 243 230
240 248 249 247 249 249 250 254 256 260 259 258 255 256 258 262 263 269 276 281 285 288 291 294 293 293 295 296 294 295 296 297 296 291 280 277 281 269 273 268 238 242 204
238 232 233 238 240 239 243 244 246 251 254 256 259 260 262 263 269 277 282 284 287 289 290 289 291 295 296 296 298 300 305 310 316 307 306 294 280 259 245 227 214 190 179
242 241 238 238 240 241 243 245 246 248 248 249 249 250 257 267 275 277 281 285 288 288 289 293 296 296 297 303 306 309 315 316 331 336 357 282 219 25 152 8 126 159 178
237 241 240 235 237 239 236 235 238 242 246 251 259 270 280 283 286 290 289 282 276 284 289 294 300 303 305 307 307 310 316 311 303 319 345 259 237 316 192 166 164 173 181
224 224 230 232 228 224 226 233 239 248 256 267 273 277 279 277 275 273 270 270 275 281 287 295 309 312 313 312 316 318 311 311 320 326 335 5 205 36 129 172 156 171 209
213 221 222 221 223 225 232 239 245 251 255 261 265 266 267 269 272 275 279 280 282 281 281 281 283 289 298 306 314 319 318 323 325 332 356 23 7 194 180 216 236 223 227
219 228 236 236 240 242 245 248 252 255 258 261 265 270 273 274 275 277 279 277 274 275 277 278 279 282 288 294 304 306 287 281 274 305 323 277 240 242 249 254 247 244 244
236 233 234 237 241 245 249 251 254 258 266 272 276 277 276 275 277 284 285 284 283 279 277 276 275 275 280 280 284 295 292 277 263 271 279 281 283 261 244 239 245 246 247
Height
3166 3172 3177 3180 3185 3188 3191 3194 3198 3202 3204 3206 3208 3211 3213 3214 3216 3218 3221 3223 3225 3228 3230 3231 3233 3233 3235 3235 3236 3236 3236 3235 3233 3231 3231 3230 3228 3227 3226 3225 3223 3222 3220
3162 3167 3171 3176 3180 3183 3186 3190 3194 3198 3201 3203 3204 3206 3209 3212 3213 3216 3218 3220 3222 3224 3226 3228 3230 3231 3231 3232 3233 3233 3233 3233 3233 3230 3228 3227 3227 3225 3224 3222 3220 3218 3218
3158 3162 3167 3170 3174 3178 3183 3187 3190 3193 3196 3199 3200 3202 3206 3209 3210 3212 3214 3216 3217 3219 3221 3222 3225 3227 3228 3228 3228 3229 3230 3229 3229 3228 3226 3225 3223 3222 3221 3220 3218 3217 3214
3156 3160 3163 3167 3171 3175 3179 3183 3186 3189 3192 3195 3197 3199 3201 3204 3206 3207 3209 3211 3213 3214 3215 3217 3218 3219 3222 3224 3224 3224 3224 3224 3224 3224 3223 3221 3221 3219 3217 3216 3215 3213 3211
3153 3156 3160 3165 3169 3172 3175 3179 3182 3185 3187 3191 3193 3195 3197 3198 3200 3203 3204 3206 3208 3209 3209 3210 3212 3214 3215 3217 3217 3217 3217 3217 3216 3217 3217 3216 3214 3214 3213 3212 3210 3207 3206
3149 3153 3157 3161 3165 3168 3172 3175 3178 3181 3184 3187 3188 3191 3192 3194 3196 3198 3200 3202 3203 3203 3204 3204 3204 3206 3208 3210 3210 3211 3211 3210 3210 3210 3210 3209 3209 3207 3206 3206 3203 3201 3200
3145 3149 3153 3156 3160 3163 3167 3170 3173 3177 3180 3182 3184 3186 3187 3189 3191 3193 3195 3196 3197 3198 3199 3200 3199 3199 3200 3202 3203 3202 3203 3203 3202 3202 3200 3201 3202 3202 3199 3197 3197 3195 3193
3140 3144 3148 3151 3154 3158 3161 3163 3166 3170 3173 3177 3179 3181 3182 3184 3185 3187 3190 3190 3190 3190 3191 3193 3193 3194 3193 3193 3194 3193 3192 3193 3194 3193 3191 3193 3193 3193 3189 3188 3187 3186 3185
3136 3140 3143 3147 3150 3153 3155 3158 3160 3162 3165 3168 3172 3174 3176 3177 3179 3180 3182 3182 3183 3183 3183 3184 3184 3184 3185 3186 3183 3182 3183 3182 3184 3184 3183 3181 3180 3180 3180 3178 3177 3177 3176
3130 3134 3138 3142 3144 3146 3148 3151 3153 3155 3156 3159 3162 3165 3168 3170 3171 3172 3173 3173 3174 3175 3175 3175 3175 3174 3174 3174 3174 3173 3171 3171 3173 3174 3173 3171 3169 3167 3163 3164 3167 3166 3166
3127 3130 3133 3136 3138 3140 3142 3143 3145 3147 3149 3150 3153 3156 3158 3161 3162 3163 3164 3164 3164 3164 3164 3165 3165 3164 3163 3162 3160 3159 3160 3162 3159 3158 3157 3156 3154 3155 3154 3150 3149 3152 3153
3117 3122 3126 3129 3132 3133 3134 3136 3137 3139 3141 3142 3144 3146 3148 3151 3152 3153 3154 3155 3154 3153 3153 3153 3153 3152 3151 3150 3148 3148 3148 3147 3144 3143 3142 3140 3139 3138 3138 3140 3142 3143 3140
3111 3115 3119 3122 3124 3125 3126 3128 3129 3130 3132 3133 3134 3136 3139 3141 3143 3143 3144 3146 3146 3144 3144 3142 3140 3139 3137 3135 3135 3136 3134 3131 3130 3126 3125 3125 3124 3125 3124 3123 3123 3120 3122
3105 3106 3109 3113 3116 3117 3118 3119 3120 3121 3122 3123 3124 3127 3129 3131 3132 3134 3135 3136 3136 3134 3133 3133 3131 3129 3128 3127 3126 3125 3123 3119 3113 3109 3107 3106 3105 3108 3107 3108 3107 3108 3108
3096 3098 3100 3104 3107 3109 3110 3110 3111 3111 3112 3114 3115 3117 3120 3121 3123 3125 3126 3126 3127 3126 3124 3123 3122 3120 3118 3117 3114 3111 3109 3106 3100 3096 3094 3092 3088 3088 3089 3092 3092 3091 3089
3088 3090 3092 3095 3097 3100 3101 3100 3102 3103 3104 3106 3108 3110 3111 3113 3114 3115 3116 3117 3117 3116 3115 3114 3113 3110 3107 3104 3100 3095 3092 3088 3085 3082 3079 3075 3066 3067 3069 3072 3071 3070 3073
3081 3082 3084 3084 3088 3091 3093 3093 3095 3096 3098 3100 3101 3102 3104 3106 3107 3108 3108 3107 3106 3106 3105 3103 3100 3098 3095 3090 3084 3079 3073 3068 3065 3062 3058 3055 3052 3047 3042 3038 3046 3042 3055
3071 3073 3077 3078 3081 3084 3084 3086 3087 3088 3090 3093 3095 3096 3097 3098 3099 3099 3100 3099 3097 3095 3093 3091 3088 3086 3082 3076 3070 3063 3056 3050 3044 3039 3035 3034 3029 3025 3018 3013 3008 3016 3010
3064 3067 3069 3072 3074 3076 3078 3079 3080 3081 3085 3086 3090 3088 3090 3090 3090 3090 3089 3088 3086 3084 3081 3078 3075 3072 3068 3062 3056 3049 3043 3034 3027 3021 3016 3010 3003 2990 2986 2989 2986 2990 3006
3059 3060 3062 3064 3065 3068 3069 3071 3073 3074 3076 3077 3079 3080 3080 3080 3080 3080 3078 3077 3075 3073 3070 3067 3063 3060 3056 3050 3044 3038 3032 3023 3015 3008 3000 2997 2993 2980 2972 2969 2965 2989 2999
3051 3053 3057 3058 3059 3062 3064 3065 3067 3067 3069 3070 3072 3072 3071 3072 3071 3070 3068 3066 3064 3061 3059 3056 3052 3049 3046 3040 3035 3030 3024 3020 3014 3009 3001 2992 2992 2994 2993 2992 2990 2997 3008
3045 3047 3050 3052 3053 3054 3055 3056 3057 3058 3059 3061 3061 3061 3060 3060 3060 3058 3058 3056 3054 3052 3050 3048 3044 3041 3037 3033 3030 3026 3021 3018 3012 3007 3002 2999 2996 2992 2989 2993 2999 3008 3017
3039 3041 3043 3044 3045 3048 3049 3050 3051 3051 3051 3052 3052 3051 3050 3050 3050 3050 3048 3047 3045 3042 3040 3038 3037 3034 3032 3028 3026 3021 3017 3013 3010 3008 3005 3003 3002 3001 3001 3002 3009 3018 3024
3031 3033 3035 3038 3040 3041 3042 3042 3043 3044 3044 3044 3044 3044 3043 3043 3042 3042 3041 3040 3037 3034 3032 3031 3030 3027 3026 3023 3021 3017 3014 3012 3009 3008 3005 3005 3003 3005 3008 3010 3012 3016 3020
3028 3029 3030 3030 3030 3031 3033 3035 3035 3035 3036 3036 3036 3036 3035 3034 3034 3032 3032 3029 3027 3026 3025 3023 3022 3021 3017 3016 3016 3014 3013 3010 3008 3007 3007 3008 3009 3009 3009 3010 3011 3013 3015
3022 3026 3027 3024 3024 3026 3027 3027 3029 3029 3028 3028 3028 3028 3028 3027 3026 3023 3021 3019 3017 3015 3013 3012 3011 3010 3009 3008 3009 3008 3009 3007 3006 3005 3005 3004 3006 3006 3006 3007 3009 3009 3009